Lid_Strength_Index
14 12 13 13 12 12 15 14 15 14 13 11 11 10 8 7 7 7 7 6 5 5 5 4 3 3 3 2 2 2 2 2 2 1 1 1 1 1 1 1 0 0 0 0
15 11 10 12 11 11 13 13 13 13 12 9 8 7 8 8 7 8 6 6 5 5 5 4 4 3 3 2 2 2 2 2 2 1 1 1 1 1 1 1 1 1 1 1
17 13 12 14 12 13 12 11 12 15 12 9 9 9 8 8 7 7 6 6 6 5 4 4 3 3 3 2 2 2 2 2 2 1 2 1 1 1 1 1 1 1 1 1
16 15 18 12 9 10 11 11 10 10 10 9 8 7 7 6 6 6 6 5 5 5 4 3 3 4 3 2 2 2 2 2 2 2 2 1 1 1 1 1 1 1 1 1
16 16 14 12 11 11 12 12 9 10 9 8 7 7 7 5 5 5 5 5 5 4 4 4 4 4 5 3 2 2 3 2 2 2 2 2 2 2 1 1 1 1 1 1
16 16 17 13 9 8 8 15 8 8 9 9 8 12 9 5 5 5 5 6 6 5 5 4 3 3 4 4 3 3 2 2 1 1 2 2 2 2 1 1 1 1 1 1
16 16 13 10 8 7 16 14 8 8 8 8 9 8 6 5 5 5 5 6 6 5 5 5 3 2 4 6 5 3 2 1 1 1 1 1 1 1 1 1 1 1 1 2
16 16 16 8 9 12 10 7 7 7 7 7 6 6 6 6 6 5 6 5 5 5 6 4 4 2 5 6 6 4 3 2 2 1 1 1 1 1 1 2 2 2 2 3
12 13 8 7 8 8 8 7 7 6 6 6 6 6 6 6 6 6 6 6 6 6 6 7 5 3 3 5 5 5 3 2 2 1 1 1 2 2 2 2 2 2 2 3
11 9 8 8 8 9 9 7 6 5 5 5 6 5 5 6 7 7 6 7 7 6 6 6 6 5 3 3 4 4 3 3 2 2 2 2 1 2 2 2 2 3 3 3
10 9 7 7 8 9 8 6 5 5 5 5 5 5 5 5 6 6 7 6 7 7 7 7 6 5 5 5 5 2 2 2 2 2 2 2 2 2 2 1 2 2 2 2
12 8 9 9 8 8 8 7 5 5 5 4 4 5 5 6 6 6 7 7 7 8 8 8 8 6 6 5 5 4 3 3 3 2 2 2 3 5 14 14 16 15 11 4
10 7 7 7 8 7 6 6 5 4 4 5 4 5 5 6 7 7 7 7 7 7 8 8 9 8 7 6 5 5 5 4 4 4 2 2 3 3 4 13 16 17 17 17
8 8 8 7 7 6 6 5 4 4 4 4 4 4 5 6 6 7 7 8 8 8 8 8 9 8 8 7 5 4 4 9 4 3 3 2 2 2 2 4 5 7 15 15
8 8 7 6 6 5 5 4 5 5 4 5 5 5 6 7 7 8 8 8 7 8 9 8 9 8 7 7 5 4 4 4 4 3 4 4 3 3 4 6 6 7 7 11
8 7 6 7 6 6 5 4 5 5 4 4 5 6 6 7 8 7 8 7 8 9 9 9 8 7 7 6 5 5 5 6 6 4 4 5 4 3 3 3 4 3 4 7
7 8 6 6 6 7 7 5 4 4 4 4 5 6 7 8 8 9 9 9 8 8 8 8 7 6 6 5 5 6 5 5 7 6 5 3 4 4 3 3 3 2 2 4
6 5 5 5 6 5 5 4 4 4 4 3 5 7 7 8 9 9 10 9 8 7 8 8 6 6 5 5 5 6 6 6 6 6 5 5 5 5 5 5 5 5 5 7
5 6 6 5 5 4 4 4 3 4 4 4 6 7 7 8 8 9 10 9 9 8 8 8 5 6 6 5 6 7 8 8 8 8 7 8 7 7 8 8 8 8 8 7
6 6 5 5 5 4 4 4 3 4 4 5 7 8 8 8 8 9 10 10 10 10 8 6 6 6 6 5 5 6 8 8 8 8 8 8 8 9 9 10 9 9 9 10
6 5 6 6 5 5 5 4 4 4 5 6 7 7 8 8 8 9 9 10 9 8 6 6 6 6 6 6 6 7 7 8 9 10 10 10 10 10 10 11 11 11 11 11
7 6 5 6 6 5 5 5 5 5 4 5 5 7 7 8 7 8 8 9 8 7 7 7 6 5 5 6 6 7 8 8 8 10 10 11 12 12 12 12 12 12 13 13
7 6 6 5 6 6 5 5 5 5 5 5 5 6 7 8 8 8 9 8 8 7 7 7 5 5 6 7 7 7 7 8 8 10 11 11 12 12 13 13 14 13 14 14
7 7 6 4 4 5 6 5 4 4 4 4 5 5 5 7 7 7 8 7 7 7 7 7 6 7 7 7 7 7 8 8 9 9 10 12 12 12 14 14 13 13 14 15
7 7 7 6 6 5 5 4 4 4 4 4 4 4 5 5 6 7 7 8 8 8 8 8 7 6 7 7 7 7 7 9 9 9 10 11 12 12 12 13 14 14 14 14
8 8 8 7 7 6 5 4 4 4 4 4 4 5 5 5 6 7 7 8 8 8 8 8 8 7 7 7 7 8 8 8 8 9 10 10 11 11 12 13 13 14 14 14
8 8 7 8 7 7 6 5 6 5 4 4 5 5 5 6 6 7 8 8 8 8 8 9 8 8 7 7 7 8 8 7 9 8 9 10 10 11 11 11 12 13 13 13